Flag for Germany Weather past 2 weeks in Witzenhausen, Hesse, Germany

Now
48 °F

Clear.


Feels Like: 48 °F
Forecast: 45 / 67 °F
Wind: 1 mph from Southeast

Location: Fritzlar

Current Time: Jul 30, 2015 at 4:30:21 AM

Latest Report: Jul 30, 2015 at 4:00 AM


Visibility: 25 mi

Pressure: 29.93 "Hg

Humidity: 85%

Dew point: 43 °F

Location of WitzenhausenLocation

Historic Weather in Witzenhausen — Graph

°F

Witzenhausen temperature yesterday

Maximum temperature yesterday: 67 °F (at 3:00 PM)
Minimum temperature yesterday: 48 °F (at 5:00 AM)
Average temperature yesterday: 57 °F

Past Weeks' High & Low Weather Summary

 TemperatureHumidityPressure
High93 °F (Jul 17, 5:00 PM)98% (Jul 20, 4:00 AM)30.13 "Hg (Jul 20, 4:00 AM)
Low48 °F (Jul 29, 5:00 AM)25% (Jul 17, 6:00 PM)29.58 "Hg (Jul 25, 10:00 AM)
Average67 °F70%29.89 "Hg
* Reported Jul 15 3:00 AM — Jul 30 3:00 AM, Witzenhausen, Weather by CustomWeather, © 2015

Note: Actual official high and low records may vary slightly from our data, if they occured in-between our weather recording intervals... More about our weather records

Advertising

Witzenhausen weather history for previous 24 hours

 ConditionsComfort  
Time TempWeatherWind HumidityBarometerVisibility
3:00 AM
Thu, Jul 30
49 °FClear.2 mph77%29.92 "Hg25 mi
2:00 AM52 °FClear.2 mph73%29.91 "Hg25 mi
1:00 AM53 °FPassing clouds.3 mph70%29.90 "Hg25 mi
12:00 AM55 °FPassing clouds.5 mph68%29.89 "Hg25 mi
11:00 PM
Wed, Jul 29
53 °FPassing clouds.3 mph75%29.88 "Hg25 mi
10:00 PM57 °FPassing clouds.6 mph65%29.86 "Hg25 mi
9:00 PM58 °FPassing clouds.7 mph59%29.84 "Hg25 mi
8:00 PM61 °FPassing clouds.8 mph51%29.82 "Hg22 mi
7:00 PM63 °FPassing clouds.12 mph45%29.81 "Hg22 mi
6:00 PM64 °FPassing clouds.10 mph43%29.79 "Hg22 mi
5:00 PM63 °FPassing clouds.7 mph54%29.78 "Hg22 mi
4:00 PM61 °FSprinkles. Scattered clouds.8 mph54%29.79 "Hg22 mi
3:00 PM67 °FScattered clouds.8 mph42%29.75 "Hg22 mi
2:00 PM63 °FScattered clouds.7 mph54%29.75 "Hg22 mi
1:00 PM59 °FSprinkles. Overcast.9 mph63%29.76 "Hg22 mi
12:00 PM61 °FSprinkles. Partly sunny.8 mph59%29.75 "Hg22 mi
11:00 AM58 °FSprinkles. Partly sunny.8 mph64%29.78 "Hg9 mi
10:00 AM59 °FPartly sunny.7 mph58%29.78 "Hg22 mi
9:00 AM58 °FScattered clouds.6 mph64%29.79 "Hg19 mi
8:00 AM56 °FPassing clouds.9 mph70%29.78 "Hg19 mi
7:00 AM51 °FPassing clouds.5 mph86%29.80 "Hg17 mi
6:00 AM48 °FPassing clouds.1 mph87%29.81 "Hg16 mi
5:00 AM48 °FPassing clouds.1 mph86%29.80 "Hg16 mi
4:00 AM48 °FPassing clouds.N/A85%29.81 "Hg19 mi
Weather by CustomWeather, © 2015

See weather overviewHow to use our weather pages